Temperature
26 23 22 22 23 24 25 25 25 27 29 28 27 27 27 26 26 25 24 24 24 24 24 23 22 22 21 21 21 20 20 19 19 19 19 18 18 18 18 18 18 18 18 18
23 22 23 24 25 25 25 25 25 26 28 29 27 27 26 26 25 25 24 24 24 23 23 23 22 22 21 21 21 20 20 19 19 19 19 19 19 18 18 18 18 18 18 18
22 23 26 26 25 25 25 25 26 27 27 27 27 25 25 25 26 25 25 24 24 24 23 22 22 22 21 21 21 20 20 20 19 19 19 18 18 18 18 18 18 18 18 18
23 25 26 26 26 26 25 26 27 27 26 24 26 23 24 24 24 24 24 24 23 23 23 22 22 21 21 21 20 20 20 19 19 19 19 18 18 18 18 18 18 18 17 17
23 25 25 26 26 27 26 27 28 27 26 24 24 23 22 23 23 23 23 23 23 23 23 23 22 22 21 21 20 20 19 19 19 19 19 18 18 18 18 18 18 18 17 17
24 26 26 26 27 28 28 27 25 22 21 22 23 23 22 22 23 23 22 23 23 23 23 22 22 22 21 20 20 20 19 19 19 18 18 18 18 18 18 18 18 17 17 17
24 25 26 27 27 27 27 23 21 22 20 21 22 23 22 22 23 23 22 22 23 23 22 22 22 21 21 20 20 20 19 19 19 18 18 18 18 18 18 18 18 18 17 17
22 22 25 26 26 25 25 22 21 22 21 21 22 22 22 23 23 23 23 22 22 22 22 22 22 21 21 21 20 19 19 19 19 18 18 18 18 18 18 18 18 18 18 18
21 22 26 27 27 26 25 23 21 20 21 21 21 22 23 23 22 22 22 22 22 22 22 22 22 21 21 20 20 19 19 19 18 18 18 18 18 18 18 18 18 18 18 17
22 23 24 27 28 27 26 24 20 20 21 21 22 22 21 22 22 21 21 21 21 22 22 21 21 21 21 20 20 19 19 19 18 18 18 18 18 17 17 17 17 17 17 17
22 22 23 24 26 25 25 24 21 19 19 20 21 21 22 22 21 21 21 21 21 21 21 21 21 21 20 20 19 19 18 18 18 18 18 17 17 17 17 17 17 17 17 17
22 21 21 22 24 26 25 24 21 21 21 19 20 20 23 22 21 21 21 21 21 21 21 21 20 20 20 19 19 19 18 18 18 18 17 17 17 17 17 17 17 17 17 17
22 20 21 22 23 25 25 24 22 20 19 19 20 21 22 21 21 22 21 21 21 21 20 20 20 20 19 19 19 18 18 18 18 17 17 17 17 17 17 17 17 17 17 17
23 19 20 22 22 24 25 25 24 20 19 20 21 21 22 21 21 21 21 21 21 20 20 20 19 19 19 19 18 18 18 18 18 17 17 17 17 17 17 17 17 16 16 16
21 21 22 22 24 26 26 26 25 23 21 21 21 21 21 21 21 21 21 20 20 20 20 19 19 19 19 19 18 18 18 18 17 17 17 17 17 17 16 16 16 16 16 16
19 21 22 23 25 25 26 26 26 25 24 23 22 21 21 21 21 21 21 20 20 20 20 20 19 19 19 19 19 18 18 17 17 17 17 17 17 17 16 16 16 16 16 16
19 20 20 21 23 24 23 24 25 25 24 23 22 21 20 20 20 21 20 20 20 20 20 20 19 19 19 19 19 18 18 17 17 17 17 17 17 16 16 16 16 16 16 15
19 18 17 19 22 22 21 23 25 24 24 23 22 21 21 20 21 21 21 21 21 20 20 20 19 19 19 18 18 18 17 17 17 17 17 16 16 16 16 16 16 15 15 15
18 18 17 17 20 21 22 23 24 23 22 22 21 20 20 20 20 19 20 21 21 21 20 20 19 19 19 18 18 18 17 17 17 17 16 16 16 16 16 16 15 15 15 15
18 17 17 18 20 20 21 23 24 22 20 21 20 20 20 20 18 18 20 20 20 20 20 19 19 19 18 18 18 17 17 16 16 16 16 16 16 16 15 15 15 15 14 14
18 18 18 18 19 19 21 22 23 21 20 20 20 20 20 19 19 19 19 20 20 20 19 19 19 18 18 17 17 17 16 16 16 16 15 15 15 15 15 14 14 14 14 13
16 16 17 17 18 19 20 21 20 19 19 20 20 20 20 19 19 19 19 19 19 19 18 18 18 17 17 17 17 16 16 16 15 15 15 15 14 14 14 14 14 13 13 13
15 15 14 15 16 17 19 19 20 20 19 19 19 20 20 18 18 18 18 18 18 18 17 17 17 17 16 16 16 16 16 15 15 14 14 14 14 14 13 13 13 13 13 13
15 14 14 15 16 17 18 19 20 20 20 20 20 20 19 18 18 18 17 17 17 17 17 16 16 16 16 15 15 15 15 14 14 14 14 14 13 13 13 13 12 12 12 12
14 14 14 14 15 16 17 18 18 19 19 19 19 19 18 18 17 17 17 17 16 16 16 16 15 15 15 15 15 14 14 14 14 14 13 13 13 12 12 12 12 11 11 11
13 13 13 14 14 14 16 17 18 18 18 18 18 17 17 17 17 16 16 16 16 15 15 15 15 15 14 14 14 14 13 13 13 13 13 12 12 12 11 11 11 10 10 10
Wind_Speed
3 3 6 9 9 9 7 9 12 13 10 2 3 4 6 9 9 10 10 11 13 12 10 11 13 15 14 13 13 13 13 12 10 8 7 6 5 5 5 5 9 11 11 11
1 8 13 9 9 9 10 10 11 11 8 2 2 2 4 8 11 13 14 13 13 10 9 11 12 13 14 14 13 13 13 13 11 9 7 5 5 4 5 4 7 10 10 10
11 8 6 9 11 11 11 8 8 9 8 6 3 5 4 2 3 6 10 12 13 15 14 14 13 12 12 13 14 13 12 12 11 10 7 6 4 4 3 4 5 6 10 10
9 11 11 10 11 10 10 11 8 6 5 5 2 2 6 3 1 5 7 9 11 11 12 12 13 13 13 13 12 11 11 11 10 10 10 9 7 6 6 5 5 6 8 9
8 7 10 12 13 10 10 9 5 3 1 4 4 1 6 1 1 4 5 8 9 10 12 13 14 14 13 12 11 10 11 10 10 10 11 10 7 6 4 5 6 6 5 6
10 8 7 10 11 10 8 2 7 6 5 3 5 3 5 4 6 6 6 7 8 10 11 10 10 10 9 10 10 10 11 10 10 10 10 10 10 8 8 7 7 6 4 4
8 10 9 7 7 7 2 5 4 5 5 5 4 2 6 7 5 9 11 9 8 9 10 11 11 10 10 11 10 10 11 10 10 10 10 10 10 10 10 9 8 7 5 5
6 9 8 7 10 8 6 10 8 6 5 5 4 2 5 3 2 8 9 8 8 8 8 10 11 11 10 10 10 10 10 9 10 10 10 9 9 7 7 8 8 8 6 6
8 8 8 8 8 10 7 7 10 8 3 2 4 3 4 3 4 7 9 9 9 9 9 9 9 9 9 9 8 9 9 8 8 9 8 8 8 8 8 8 7 6 5 6
11 6 9 7 4 5 10 9 7 6 5 4 4 4 5 5 5 6 7 7 7 7 8 8 8 8 8 8 7 7 7 7 6 7 7 7 7 7 7 7 7 7 6 6
11 8 8 5 5 8 5 6 6 6 7 7 4 6 6 10 11 10 9 8 8 8 9 9 7 7 7 7 7 7 6 5 5 6 6 6 5 6 6 6 6 6 6 6
10 8 8 10 8 8 9 10 10 7 6 6 5 7 6 7 9 10 10 9 8 8 8 8 8 7 7 7 7 7 6 6 6 5 5 5 4 5 5 5 5 5 6 6
9 8 4 8 8 2 4 7 9 8 6 6 6 6 2 4 6 8 10 11 9 8 8 7 7 7 7 6 6 6 6 6 6 6 5 5 5 5 5 5 5 5 5 5
9 7 8 11 8 4 3 4 6 8 6 6 8 7 4 6 8 9 10 11 11 9 8 7 7 6 6 6 5 5 5 6 6 6 6 5 5 5 4 4 4 4 4 4
6 6 7 7 7 3 3 4 4 6 9 10 10 11 11 12 13 12 12 12 12 10 9 8 7 7 7 7 6 5 5 6 6 6 5 5 4 4 4 4 4 4 3 4
4 3 3 2 2 1 3 5 6 6 7 7 8 7 8 9 9 11 13 14 13 11 11 10 8 8 8 7 7 6 6 5 6 6 5 4 4 4 4 4 4 4 3 3
3 3 3 2 2 3 4 6 5 4 4 8 9 10 11 10 13 14 13 13 12 11 11 10 8 7 7 6 7 7 6 5 6 5 5 4 5 5 4 4 4 4 4 3
3 3 3 2 2 4 9 5 3 2 1 4 8 12 16 14 11 8 10 12 11 10 11 10 8 6 6 6 6 7 7 6 6 5 5 5 5 5 4 5 4 4 4 4
5 6 3 4 3 4 6 5 1 3 2 1 9 13 13 12 10 5 3 7 9 9 9 9 8 8 6 7 7 8 7 6 6 6 5 4 5 5 5 5 4 4 5 5
4 6 5 4 4 6 7 7 2 7 2 1 9 14 14 10 7 4 4 8 9 9 9 9 8 8 7 6 7 8 7 6 6 5 5 5 5 6 6 5 5 5 6 7
3 3 4 4 4 6 6 6 3 5 6 3 8 11 10 5 7 8 9 9 9 9 9 9 9 7 5 6 8 7 7 6 5 6 6 5 5 5 6 6 5 6 8 8
1 1 3 4 4 6 6 4 3 6 4 7 9 10 10 11 11 11 10 10 10 9 9 9 9 7 5 6 8 8 6 5 6 7 7 6 6 5 5 7 7 7 9 9
0 3 4 4 5 5 2 3 4 7 10 8 9 12 14 13 10 10 9 8 9 9 8 8 8 8 6 5 7 8 5 6 8 8 8 7 7 7 6 7 8 7 7 7
5 3 2 2 2 2 4 6 6 7 9 10 12 13 13 13 11 10 9 7 8 8 7 7 8 8 6 5 6 6 6 7 9 9 8 7 7 7 7 6 6 6 6 6
4 4 2 1 1 5 7 6 7 9 11 12 11 11 10 12 12 11 9 8 8 7 6 7 8 8 7 6 6 6 7 8 9 9 8 7 7 8 8 8 7 5 4 4
1 1 1 3 3 3 1 2 6 10 10 12 12 10 9 11 11 10 8 6 7 7 7 8 8 8 7 7 6 5 6 8 10 8 7 6 6 7 7 8 9 14 11 12
Wind_Direction
216 150 224 228 216 220 256 283 290 289 293 321 183 185 190 181 171 168 169 167 170 180 180 171 169 167 163 163 163 165 161 162 157 154 153 150 159 160 162 171 175 173 172 167
286 246 234 232 246 252 262 273 282 292 306 350 238 242 214 187 185 176 174 174 172 167 159 163 164 166 168 170 168 167 165 166 166 165 160 154 148 157 168 171 177 178 176 173
211 239 227 228 249 260 271 257 263 278 317 356 44 347 328 267 177 178 177 174 171 170 168 167 164 166 168 171 172 172 170 168 166 158 143 130 117 115 145 174 182 186 180 178
240 248 258 259 255 241 262 260 259 292 342 309 50 282 290 273 176 187 182 171 173 173 164 165 163 166 172 176 171 164 167 167 165 160 161 161 166 172 184 180 182 187 182 181
238 232 231 243 247 239 236 251 271 302 357 338 346 132 284 342 196 212 182 168 174 171 165 166 168 170 170 169 167 164 165 169 167 169 171 171 173 175 169 166 173 184 189 189
249 263 236 232 248 240 238 320 10 35 62 335 277 167 275 254 218 187 170 164 167 165 166 163 157 154 158 160 164 164 166 174 174 174 176 176 176 172 168 173 179 185 188 194
282 279 264 256 269 282 201 93 22 348 4 258 282 164 250 259 209 168 165 164 161 160 157 153 155 159 161 163 167 167 168 176 178 178 182 184 183 179 181 181 185 184 187 195
225 269 252 229 208 212 202 145 162 200 223 275 328 233 263 280 145 136 138 140 148 155 158 159 163 165 165 166 167 169 175 180 183 185 188 187 184 183 187 187 184 187 192 194
201 247 264 240 208 174 179 180 173 151 190 282 292 287 321 52 101 124 132 138 154 163 161 160 160 158 162 164 171 176 176 179 183 185 181 184 187 186 187 187 183 187 187 188
182 244 280 271 237 214 177 163 109 129 170 237 274 251 220 194 166 150 145 153 158 159 159 154 157 161 160 163 166 169 170 177 176 177 180 184 185 185 183 179 182 187 189 186
180 203 278 331 202 205 173 155 138 140 156 163 223 262 230 187 177 166 159 159 151 154 158 152 148 149 147 147 149 153 157 158 162 166 171 170 176 176 174 179 184 184 184 180
181 172 239 257 252 209 185 185 158 164 210 168 172 258 267 184 169 159 152 150 147 151 151 149 146 139 138 143 146 150 154 155 160 157 149 154 158 162 171 180 181 177 177 180
164 148 203 310 323 309 193 187 173 151 143 160 167 249 270 151 143 151 148 147 146 143 140 142 141 140 142 145 145 149 154 154 150 144 142 144 152 161 172 175 171 172 176 179
152 135 170 202 216 225 232 221 174 139 164 196 199 203 213 178 162 157 152 152 148 145 141 141 140 131 131 135 140 149 153 148 145 144 146 152 162 167 168 159 157 163 168 171
119 154 178 199 208 202 228 246 211 186 186 185 205 190 199 189 175 165 154 147 142 144 147 146 142 138 138 140 143 140 139 141 143 141 148 161 163 148 140 141 145 141 149 167
48 132 147 222 235 265 287 277 252 223 198 183 163 188 192 171 153 153 154 151 152 157 157 149 146 147 153 157 154 140 139 138 136 140 145 144 140 137 136 138 141 137 136 137
15 89 107 238 316 33 284 250 240 235 202 170 179 192 163 153 162 164 160 157 160 161 152 147 152 156 158 160 150 146 147 136 133 135 134 128 128 127 128 136 132 139 146 139
137 93 127 146 79 222 246 260 212 181 248 190 164 158 159 156 154 148 152 152 154 156 150 149 154 156 153 144 135 133 131 130 129 124 124 126 128 129 126 119 124 132 128 126
148 139 124 127 169 265 293 305 228 148 347 96 141 142 140 124 94 75 117 136 144 146 146 147 151 146 142 139 136 130 132 133 130 129 129 132 135 130 127 128 126 119 115 109
85 113 124 131 157 215 248 289 296 104 33 283 138 143 143 126 129 175 143 122 119 120 127 131 130 122 128 136 136 134 137 136 136 135 134 126 126 131 130 130 123 115 113 108
16 56 136 161 193 244 265 303 34 125 203 186 140 145 142 135 150 145 130 117 116 116 117 123 121 118 128 133 128 132 134 139 138 128 120 113 111 116 119 115 109 112 111 107
189 156 181 154 180 242 301 15 128 182 153 117 117 121 114 111 113 120 123 121 120 116 114 118 118 114 112 119 126 127 132 135 126 121 116 111 106 106 110 112 108 108 112 110
114 197 197 181 205 251 304 121 133 133 116 109 112 117 118 116 120 122 124 125 121 119 118 117 117 113 105 109 122 127 127 122 118 115 113 108 102 97 103 113 114 112 111 115
318 351 75 55 359 356 52 82 87 99 104 107 112 116 119 121 121 118 118 119 116 112 113 114 114 111 107 104 105 116 119 118 117 116 112 110 108 100 92 96 103 112 118 122
300 346 23 70 336 33 34 52 82 89 95 98 100 107 114 120 118 119 120 118 115 112 109 112 117 118 116 108 103 109 119 119 115 115 114 110 106 107 97 87 78 91 87 126
269 210 175 219 233 149 167 44 94 98 102 107 105 98 101 109 112 110 108 108 110 111 110 110 109 112 113 110 106 108 117 122 122 119 118 118 119 115 111 106 86 64 74 78
Height
1496 1502 1507 1504 1502 1504 1504 1506 1505 1493 1479 1480 1483 1484 1482 1481 1483 1485 1487 1488 1490 1494 1497 1500 1503 1506 1510 1513 1516 1519 1522 1526 1530 1533 1536 1539 1542 1544 1547 1549 1552 1554 1557 1559
1501 1503 1495 1494 1495 1498 1500 1505 1502 1490 1478 1480 1484 1484 1480 1479 1480 1481 1483 1486 1489 1491 1494 1497 1500 1503 1507 1510 1513 1517 1520 1523 1527 1530 1533 1537 1540 1542 1545 1548 1550 1553 1555 1557
1501 1494 1488 1492 1495 1498 1498 1501 1497 1493 1483 1481 1485 1494 1486 1480 1480 1482 1482 1483 1486 1488 1490 1494 1497 1501 1505 1508 1511 1515 1518 1521 1525 1528 1532 1535 1538 1541 1543 1545 1548 1551 1553 1555
1494 1487 1488 1490 1492 1493 1500 1487 1486 1487 1495 1503 1494 1514 1496 1486 1484 1482 1482 1484 1485 1487 1489 1492 1495 1499 1502 1506 1510 1513 1516 1520 1523 1526 1529 1532 1534 1536 1539 1542 1545 1548 1550 1552
1491 1483 1485 1488 1485 1484 1487 1479 1481 1484 1493 1504 1500 1510 1504 1489 1489 1485 1483 1484 1486 1487 1489 1491 1494 1498 1501 1505 1508 1511 1514 1518 1521 1524 1526 1529 1532 1534 1537 1540 1543 1545 1548 1550
1483 1478 1478 1478 1475 1475 1476 1480 1487 1495 1506 1520 1507 1510 1510 1495 1486 1483 1483 1484 1485 1488 1490 1492 1495 1498 1501 1504 1507 1510 1513 1515 1518 1521 1523 1526 1529 1532 1534 1537 1539 1542 1545 1547
1487 1478 1472 1472 1477 1474 1477 1500 1522 1523 1532 1527 1505 1507 1506 1484 1477 1477 1480 1483 1486 1488 1490 1492 1495 1498 1500 1503 1506 1509 1511 1513 1515 1518 1520 1523 1526 1528 1531 1534 1536 1539 1541 1544
1497 1493 1472 1467 1472 1479 1481 1495 1523 1533 1534 1525 1507 1508 1496 1479 1476 1476 1479 1483 1486 1489 1490 1492 1494 1497 1500 1502 1505 1507 1509 1511 1513 1516 1518 1520 1523 1525 1528 1530 1533 1536 1538 1540
1493 1490 1465 1460 1460 1467 1479 1489 1492 1513 1518 1524 1517 1502 1490 1480 1480 1480 1481 1482 1486 1489 1491 1493 1495 1498 1500 1503 1504 1506 1508 1510 1512 1514 1516 1518 1520 1522 1525 1527 1530 1533 1535 1537
1476 1484 1468 1459 1457 1460 1465 1475 1497 1512 1527 1532 1519 1508 1503 1489 1485 1483 1483 1484 1486 1489 1491 1493 1495 1499 1501 1503 1505 1506 1508 1509 1511 1512 1514 1515 1518 1520 1522 1524 1527 1529 1532 1534
1466 1480 1474 1466 1465 1469 1469 1475 1487 1505 1512 1525 1528 1515 1483 1481 1481 1482 1483 1485 1486 1488 1490 1493 1496 1499 1501 1503 1505 1506 1507 1509 1510 1511 1512 1514 1515 1517 1519 1521 1523 1526 1528 1530
1459 1474 1483 1472 1457 1453 1459 1468 1482 1501 1506 1511 1518 1509 1473 1474 1475 1478 1481 1484 1487 1489 1492 1494 1496 1498 1501 1502 1504 1505 1507 1508 1509 1510 1511 1512 1514 1515 1517 1518 1520 1523 1525 1527
1454 1472 1488 1484 1473 1459 1459 1461 1468 1481 1496 1507 1513 1502 1473 1474 1476 1479 1482 1484 1487 1490 1492 1494 1496 1498 1501 1503 1504 1505 1506 1507 1508 1510 1510 1511 1512 1514 1515 1516 1518 1520 1522 1524
1443 1463 1476 1485 1478 1464 1462 1459 1462 1478 1495 1499 1495 1488 1478 1476 1476 1479 1481 1484 1486 1489 1491 1494 1497 1499 1501 1503 1504 1506 1507 1508 1509 1509 1510 1511 1511 1512 1513 1514 1516 1518 1520 1521
1443 1458 1458 1459 1455 1453 1455 1455 1457 1466 1473 1483 1481 1478 1474 1472 1472 1474 1478 1482 1486 1488 1492 1494 1497 1499 1501 1502 1504 1505 1506 1507 1508 1509 1509 1510 1511 1512 1513 1514 1515 1516 1517 1519
1447 1454 1454 1455 1450 1450 1453 1451 1452 1454 1458 1464 1468 1472 1465 1466 1469 1473 1477 1480 1483 1487 1491 1494 1497 1499 1500 1501 1503 1504 1505 1507 1508 1508 1509 1510 1510 1511 1512 1513 1514 1515 1516 1517
1452 1456 1464 1467 1456 1455 1464 1453 1451 1451 1450 1455 1465 1464 1462 1466 1468 1471 1474 1478 1482 1485 1488 1492 1496 1498 1500 1501 1502 1503 1505 1506 1507 1508 1508 1509 1510 1510 1511 1512 1513 1514 1515 1516
1452 1459 1468 1469 1465 1476 1463 1443 1443 1446 1447 1446 1448 1452 1456 1460 1464 1469 1472 1475 1480 1484 1487 1491 1495 1497 1499 1501 1502 1503 1504 1505 1506 1507 1508 1509 1510 1510 1511 1512 1512 1513 1514 1515
1446 1456 1467 1475 1476 1470 1454 1443 1442 1448 1453 1447 1449 1453 1458 1461 1466 1472 1474 1476 1480 1484 1487 1491 1494 1496 1498 1500 1501 1502 1503 1504 1505 1506 1507 1508 1509 1510 1510 1511 1512 1512 1513 1514
1445 1451 1464 1472 1474 1477 1459 1442 1438 1445 1460 1450 1449 1453 1458 1461 1472 1475 1475 1477 1480 1484 1487 1490 1493 1495 1497 1498 1500 1501 1502 1503 1504 1505 1506 1507 1508 1509 1509 1510 1511 1512 1512 1513
1456 1458 1464 1469 1471 1465 1449 1441 1440 1460 1462 1451 1451 1453 1456 1460 1465 1470 1474 1477 1480 1483 1486 1489 1491 1494 1496 1497 1498 1499 1501 1502 1503 1504 1505 1506 1507 1507 1508 1509 1510 1511 1511 1513
1462 1465 1466 1469 1472 1469 1446 1443 1448 1452 1448 1449 1451 1454 1457 1461 1466 1470 1474 1477 1480 1482 1486 1488 1490 1492 1494 1496 1497 1498 1499 1500 1501 1502 1503 1504 1505 1506 1507 1508 1509 1510 1511 1512
1461 1462 1462 1463 1464 1453 1446 1445 1445 1445 1447 1450 1452 1456 1459 1463 1469 1472 1475 1478 1481 1483 1485 1487 1489 1491 1493 1495 1496 1497 1498 1499 1500 1501 1502 1503 1504 1505 1506 1508 1508 1510 1511 1512
1459 1456 1458 1459 1456 1452 1449 1447 1449 1449 1450 1452 1454 1458 1462 1465 1469 1472 1476 1479 1481 1483 1485 1487 1489 1491 1492 1494 1495 1496 1497 1498 1499 1500 1501 1502 1503 1504 1505 1507 1508 1509 1510 1512
1461 1459 1459 1459 1457 1454 1453 1453 1453 1454 1455 1457 1459 1462 1465 1467 1469 1472 1476 1479 1482 1484 1485 1487 1489 1490 1491 1493 1494 1495 1496 1497 1498 1498 1500 1501 1502 1503 1505 1506 1507 1509 1511 1512
1459 1461 1462 1461 1458 1457 1458 1456 1456 1457 1458 1460 1462 1465 1467 1468 1471 1474 1477 1479 1482 1484 1485 1487 1488 1489 1491 1492 1493 1494 1495 1496 1497 1498 1499 1500 1501 1503 1504 1505 1507 1510 1511 1513